Regional Weather Roundup
Issued by NWS Wakefield, VA

Home | Current Version | Previous Version | Graphics & Text | Print | Product List | Glossary On
Versions: 1 2 3 4 5 6 7 8 9 10 11 12 13 14 15 16 17 18 19 20 21 22 23 24 25 26 27 28 29 30 31 32 33 34 35 36 37 38 39 40 41 42 43 44 45 46 47 48 49 50
000
ASUS41 KAKQ 052014
RWRAKQ

REGIONAL WEATHER ROUNDUP
NATIONAL WEATHER SERVICE WAKEFIELD VA
300 PM EST FRI FEB 05 2016

Note: "fair" indicates few or no clouds below 12,000 feet with no
significant weather and/or obstructions to visibility. * = Denotes
station may not report precipitation (e.g., rain,snow,etc.),
thunder or fog.

VAZ042-051-052>054-056-052100-
NORTHERN VIRGINIA

CITY           SKY/WX    TMP DP  RH WIND       PRES   REMARKS
WASH NATIONAL  FAIR      43  20  39 W20G29    30.29R
DULLES         FAIR      40  19  43 NW16G23   30.29S
FORT BELVOIR   FAIR      43  18  36 W17G24    30.29R
QUANTICO       FAIR      45  19  35 NW12G26   30.31S
FREDERICKSBRG* FAIR      43  20  40 NW15G21   30.30R
STAFFORD*      FAIR      42  16  35 NW14G25   30.34R
WARRENTON      FAIR      42  24  47 N14       30.30R
CULPEPER*      FAIR      41  17  38 N9G16     30.31R
MANASSAS*      SUNNY     41  21  45 NW20G25   30.30S
LEESBURG*      FAIR      41  25  52 NW18      30.30R
WINCHESTER     FAIR      37  19  48 W15       30.29S
FRONT ROYAL*   FAIR      39  18  41 NW12      30.29R
LURAY*         FAIR      37  14  38 NW13G21   30.29S
$$

VAZ048-049-060>072-079>083-052100-
CENTRAL AND SOUTH CENTRAL VIRGINIA

CITY           SKY/WX    TMP DP  RH WIND       PRES   REMARKS
RICHMOND       FAIR      45  25  45 N12       30.28F
CHESTERFIELD*  FAIR     N/A N/A N/A NW13G18   30.29F
PETERSBURG*    FAIR      46  16  29 NW12      30.29S
HANOVER        FAIR      44  21  40 VRB6      30.31R
TAPPAHANNOCK*  FAIR      44  23  42 N9        30.29S
QUINTON*       FAIR      43  23  44 NW7G16    30.28F
CHARLOTTSVILLE FAIR      43  13  29 N8G17     30.29S
GORDONSVILLE*  FAIR      42  15  33 N10G16    30.29S
ORANGE*        FAIR      43  16  33 W10       30.31S
LOUISA*        FAIR      45  18  33 NW8       30.28S
BUMPASS*       FAIR      42  17  36 W3        30.29S
FARMVILLE*     FAIR      46  16  30 N7        30.28S
CREWE*         FAIR      44  17  32 N8        30.28F
FORT PICKETT*  FAIR      44  20  37 NW15      30.28S
CHASE CITY*    FAIR      45  15  30 NW7       30.29S
CLARKSVILLE*   FAIR      45  18  33 NW6       30.29S
SOUTH HILL*    FAIR      44  21  39 N10       30.34S
LAWRENCEVILLE* FAIR      44  24  45 NW8       30.28S
EMPORIA*       FAIR      43  27  52 NW14G20   30.29F
$$

VAZ088>098-052100-
SOUTHEAST VIRGINIA

CITY           SKY/WX    TMP DP  RH WIND       PRES   REMARKS
NORFOLK        FAIR      44  26  49 N13G21    30.26F
VIRGINIA BEACH FAIR      46  29  51 NW21G29   30.25F
NORFOLK NAVAL  FAIR      45  27  49 N16G23    30.27F
WEST POINT*    FAIR      44  23  44 NW10G17   30.30S
SALUDA*        FAIR      43  27  52 NW10G20   30.27F
NEWPORT NEWS   FAIR      43  28  55 N12       30.27F
LANGLEY AFB    FAIR      44  28  53 NW14G20   30.25F
FORT EUSTIS    FAIR      45  23  42 N10       30.25F
WILLIAMSBURG*  FAIR      48  28  46 NW15G24   30.28F
HR EXEC AP*    FAIR      45  28  53 NW9       30.28F
FRANKLIN*      FAIR      45  27  49 NW5G17    30.28S
US460-WAKEFLD  FAIR      47  25  42 NW9       30.27F
$$

VAZ020-022-025-037-045-052100-
WEST CENTRAL AND SOUTHWEST VIRGINIA

CITY           SKY/WX    TMP DP  RH WIND       PRES   REMARKS
STAUNTON*      FAIR      45  14  28 N12G17    30.30S
WAYNESBORO*    FAIR      39   8  28 N8        30.26S
HOT SPRINGS VA FLURRIES  31   8  37 N3G18     30.17R
LYNCHBURG      FAIR      44  12  27 N9        30.29F
DANVILLE       FAIR      46  17  31 N10       30.31S
SOUTH BOSTON*  FAIR      46  13  27 NW15G21   30.30S
MARTINSVILLE   FAIR      42  11  27 NW6G16    30.32F
ROANOKE        FAIR      43  11  27 NW13G23   30.32S
BLACKSBURG     FAIR      38  15  38 NW12      30.31S
DUBLIN*        FAIR      38  13  34 NW8       30.31S
MARION*        FAIR      37  10  32 N3        30.31S
HILLSVILLE*    FAIR      35  11  37 NW21      30.25S WCI  23
RICHLANDS*     FAIR      34   9  35 NW8       30.30R
WISE*          FAIR      36   3  25 N7        30.31F
ABINGDON*      FAIR      39   7  26 NW8       30.32F
$$

MDZ021>025-VAZ099-100-052100-
SOUTHERN MARYLAND AND THE DELMARVA PENINSULA

CITY           SKY/WX    TMP DP  RH WIND       PRES   REMARKS
PATUXENT RIVER MOSUNNY   42  23  46 NW17      30.27R
BAY BRIDGE APT   N/A     43  23  45 NW14G20   30.26R
LEONARDTOWN    SUNNY     43  21  42 NW6       30.29R
DOVER          LGT RAIN  41  30  65 NW18G24   30.21R
GEORGETOWN     CLOUDY    39  29  67 NW12G23   30.24R
EASTON         MOSUNNY   43  27  52 NW15G29   30.28R
CAMBRIDGE      SUNNY     41  25  52 NW16G26   30.25R
SALISBURY      PTSUNNY   43  30  60 NW14G23   30.24R
OCEAN CITY     RAIN      38  29  70 NW15G29   30.25R
WALLOPS ISLAND PTSUNNY   42  29  59 NW13G24   30.25R
ACCOMACK*      FAIR      41  28  60 NW17G31   30.26S
$$

NCZ012>017-030>032-052100-
NORTH CENTRAL AND EASTERN NORTH CAROLINA

CITY           SKY/WX    TMP DP  RH WIND       PRES   REMARKS
ROANOKE RAPIDS FAIR      45  23  42 NW13      30.28S
RALEIGH        SUNNY     46  20  35 NW9G16    30.30S
ELIZABETH CITY SUNNY     44  28  53 N22G29    30.26S
AHOSKIE*       SUNNY     44  26  48 N9G16     30.27F
EDENTON*       PTSUNNY   47  32  56 N13G18    30.27S
CURRITUCK*     SUNNY     44  30  57 NW12G17   30.27R
KILL DEVIL HLS MOSUNNY   44  31  59 N10G23    30.24R
MANTEO         MOSUNNY   44  32  62 N15G25    30.25F
CAPE HATTERAS  CLOUDY   N/A N/A N/A N12G23    30.25S
TARBORO*       FAIR      47  29  49 N7        30.29S
GOLDSBORO      SUNNY     48  27  43 NW12G18   30.27R
WASHINGTON     MOSUNNY   46  30  53 NW10      30.27S
GREENVILLE     MOSUNNY   46  30  53 N12       30.29R
NEW BERN       PTSUNNY   47  31  53 N10       30.29R
WILMINGTON     MOSUNNY   49  31  49 N10       30.28S
$$

VAZ048-052100-
ELSEWHERE

CITY           SKY/WX    TMP DP  RH WIND       PRES   REMARKS
HARRISBURG PA  MOSUNNY   38  22  52 NW16      30.24R
BALTIMORE      MOSUNNY   41  20  43 NW18      30.25R
ANNAPOLIS      MOSUNNY   42  22  44 NW14      30.26R
ANDREWS AFB    FAIR      41  20  42 NW16      30.26R
PHILADELPHIA   PTSUNNY   43  20  39 W16       30.19R
HENDERSON NC   SUNNY     46  18  32 NW8G20    30.29R
GREENSBORO     MOSUNNY   46  10  23 N12G17    30.29F
ROCKY MOUNT    SUNNY     46  25  43 NW14      30.28R
$$

VAZ100-052100-
MARINE

STATION/POSITION TIME  TEMP    WIND        PRES    WAVE   SWELL
                       AIR SEA DIR/SP/G            HT/PER HT/PER
                 (UTC) (F)     (DEG/KT/KT) (MB)    (FT/S) (FT/S)
BRANDYWINE LGT   1900   40     330/ 13/ 17 1022.3R
CAPE MAY NJ      1900   42 42  320/  8/ 16 1022.0R
LEWES DE         1900   41 43  320/ 25/ 28 1022.5R
15NM E FENWICK I 1950   41 45              1022.6R   8/ 8
OCEAN-CITY-INLET 1900   42 44  360/ 16/ 20 1021.9R
WACHAPREAGUE VA  1900   42 46  280/  5/ 12 1024.3R
THOMAS POINT MD  2000   41 40  310/ 15/ 19 1024.9R
GOOSES REEF MD   2000   41 40  320/ 16/ 19 1025.5R   2/ 3
COVE POINT MD    1900   40     340/ 20/ 24 1025.2R
SOLOMONS ISLAND  1900   41 42  310/ 11/ 17   N/A
BISHOPS HEAD MD  1900   41 41  300/ 17/ 24 1023.7R
POTOMAC MD       2000   41 41  300/ 16/ 19 1024.3F   2/ 3
CAMBRIDGE MD     1900   42 41  300/ 11/ 17 1023.4R
LEWISETTA VA     1900   41 44  320/ 18/ 21 1025.1R
RAPPAHANNOCK LGT 1900          320/ 23/ 25 1024.8R
STINGRAY PT      2000   42 43  340/ 16/ 19 1025.1F   2/ 2
YORK RVR RNG VA  1900   42     340/ 19/ 21 1024.6R
YORKTOWN VA      1900   42 45  320/ 21/ 25 1025.1R
JAMESTOWN VA     2000   43 44  330/  8/ 14   N/A
DOMINION TERM VA 1900   41     330/ 17/ 22 1025.2F
KIPTOPEKE VA     1900      44  330/ 21/ 25   N/A
CHES BAY BRIDGE  1900   41 43  300/ 20/ 22 1024.8R
CAPE HENRY VA    1900   40     320/ 22/ 25   N/A
CHESAPEAKE LGHT  1900   40     330/ 26/ 30 1024.8R
WILLOUBY STN VA  1900   42     330/ 16/ 19 1026.1R
CAPE HENRY BUOY  1958      46                N/A     7/ 8   2/11
1ST LANDING BUOY 2000      43                N/A     3/ 4
CAPE CHARLES BUO 1956      45                N/A     5/ 7   3/ 7
OFFSHORE WE BUOY 1951      48                N/A     9/ 8   3/14
64NM E OF VA BCH 1950   43 54  340/ 25/ 31 1023.0R  11/ 9   7/ 9
DUCK PIER NC     1900   42 45  340/ 23/ 28 1023.3F
44100 DUCK FRF   1954      47                N/A     9/ 8   2/11
44056 DUCK FRF   1911      45                N/A     7/ 8   2/11
OREGON INLET NC  1900   41 48  330/ 16/ 22 1024.2R
HATTERAS NC      1900   43 54  340/ 24/ 31 1023.8F
DIAMOND SHLS NC  1950      69  340/ 25/ 31 1023.8R   8/ 9   5/ 9
$$



USA.gov is the U.S. government's official web portal to all federal, state and local government web resources and services.